Погода в Пиле

Италия     45˚41′20″N   7˚18′29″E
темп.,
°C
ветер,
м/с
пор.,
м/с
влажн.,
%
обл.,
%
осадки,
мм/ч
давл.,
гПа
погр.,
м
17 января, вс
вс1701:00−6˚з359197 0.7 1021156
04:00−4˚з3495100 3.7 1018178
07:00−5˚з348799 4.4 1019105
10:00−5˚з348697 0.1 1018146
13:00−2˚зсз347698 0.2 1018816
16:00−4˚зсз458469 0.3 1018221
19:00−6˚зсз348766 0.6 102397
22:00−10˚зсз338224 0.0 102663
18 января, пн
пн1801:00−11˚зсз338113 0.1 102766
04:00−12˚зсз337738 0.0 102754
07:00−12˚зсз337519 0.0 102844
10:00−8˚зсз24790 0.0 1028131
13:00−3˚зсз34710 0.0 1027476
16:00−5˚зсз34782 0.0 102699
19:00−10˚зсз226719 0.0 102834
22:00−10˚з226460 0.0 102825
19 января, вт
вт1901:00−9˚зсз226341 0.0 102723
04:00−8˚зсз22622 0.0 102623
07:00−8˚з22613 0.0 102522
10:00−4˚з117118 0.0 102438
13:00юв018841 0.0 1022106
16:00−1˚ююз0185100 0.0 102023
19:00−7˚з126496 0.0 102221
22:00−8˚з116125 0.0 102121
20 января, ср
ср2001:00−9˚з006213 0.0 102121
04:00−11˚зсз00610 0.0 101921
07:00−13˚ссв11620 0.0 101921
10:00−10˚с118157 0.0 101843
13:00−8˚ссв129078 0.0 1015264
16:00−8˚ссв2396100 0.1 1013280
19:00−9˚св2296100 0.2 101451
22:00−9˚ссв1296100 0.1 101343
21 января, чт
чт2101:00−9˚с1196100 0.4 101226
04:00−8˚с1196100 0.3 101030
07:00−8˚ссв1196100 0.6 101122
10:00−6˚с1194100 0.1 1010182
13:00−3˚ссв1191100 0.3 1010280
16:00−3˚зюз119488 0.2 100982
19:00−6˚св009394 0.4 101021
22:00−7˚св119497 0.1 100921